Location: Newark
(48.8656°N, 2.3211°E)
Time: 08:50:41
(UTC+00:00)

Envisat - Visible Passes

Search period start: 08 December 2019 00:00
Search period end: 18 December 2019 00:00
Orbit: 764 x 766 km, 98.1° (Epoch: 08 December)

Date Brightness Start Highest point End Pass type
(mag) Time Alt. Az. Time Alt. Az. Time Alt. Az.
08 Dec 5.1 05:55:16 10° NNE 05:59:42 29° E 06:04:06 10° SSE visible
08 Dec 3.0 17:13:29 10° SSE 17:18:25 56° ENE 17:23:25 10° N visible
08 Dec 5.4 18:53:53 10° SW 18:57:48 22° W 19:01:45 10° NW visible
09 Dec 6.0 05:19:44 10° NE 05:22:30 15° E 05:25:16 10° ESE visible
09 Dec 3.8 16:37:33 10° ESE 16:41:53 29° ENE 16:46:14 10° N visible
09 Dec 4.1 18:15:54 10° S 18:20:45 44° W 18:25:37 10° NNW visible
10 Dec 4.1 06:20:26 10° NNE 06:25:22 48° E 06:30:16 10° S visible
10 Dec 3.0 17:38:47 10° SSE 17:43:53 89° W 17:49:00 10° NNW visible
10 Dec 6.0 19:21:12 10° WSW 19:23:38 13° W 19:26:05 10° WNW visible
11 Dec 5.5 05:44:13 10° NE 05:48:19 24° E 05:52:23 10° SE visible
11 Dec 3.2 17:02:22 10° SE 17:07:12 46° ENE 17:12:03 10° N visible
11 Dec 5.0 18:42:08 10° SSW 18:46:25 27° W 18:50:44 10° NW visible
12 Dec 6.2 05:09:22 10° ENE 05:11:04 11° E 05:12:45 10° ESE visible
12 Dec 3.2 06:45:49 10° NNE 06:50:56 79° ESE 06:56:00 10° S visible
12 Dec 4.0 16:26:40 10° ESE 16:30:43 25° ENE 16:34:46 10° N visible
12 Dec 3.7 18:04:26 10° S 18:09:25 55° W 18:14:26 10° NNW visible
13 Dec 4.6 06:09:15 10° NNE 06:14:01 39° E 06:18:45 10° SSE visible
13 Dec 2.9 17:27:32 10° SSE 17:32:36 75° ENE 17:37:41 10° N visible
13 Dec 5.8 19:09:00 10° SW 19:12:12 17° W 19:15:26 10° NW visible
14 Dec 5.8 05:33:16 10° NE 05:36:55 19° E 05:40:33 10° SE visible
14 Dec 3.5 16:51:20 10° SE 16:55:59 38° ENE 17:00:40 10° N visible
14 Dec 4.7 18:30:29 10° SSW 18:35:03 33° W 18:39:39 10° NNW visible
15 Dec 3.6 06:34:33 10° NNE 06:39:38 64° ESE 06:44:40 10° S visible
15 Dec 3.3 17:53:03 10° S 17:58:06 68° WSW 18:03:11 10° NNW visible
16 Dec 5.0 05:58:08 10° NNE 06:02:40 32° E 06:07:10 10° SSE visible
16 Dec 3.0 17:16:21 10° SSE 17:21:21 61° ENE 17:26:22 10° N visible
16 Dec 5.5 18:57:02 10° SW 19:00:47 21° W 19:04:34 10° NW visible
17 Dec 6.0 05:22:26 10° NE 05:25:30 16° E 05:28:32 10° SE visible
17 Dec 3.0 07:00:02 10° NNE 07:05:08 79° WNW 07:10:13 10° SSW visible
17 Dec 3.7 16:40:21 10° SE 16:44:47 31° ENE 16:49:14 10° N visible
17 Dec 4.3 18:18:55 10° SSW 18:23:42 41° W 18:28:30 10° NNW visible
